Location: Brunembert
(50.7122°N, 1.8935°E)
Time: 20:18:08
(UTC+00:00)

X-37B - Pass Details

Date: 30 September 2021
Orbit: 385 x 389 km, 45.0° (Epoch: 17 October)

Event Time Altitude Azimuth Distance (km) Brightness Sun altitude
Exits shadow 03:39:22 22° 142° (SE) 907 2.6 -21.2°
Drops below altitude 10° 03:40:58 10° 119° (ESE) 1,413 3.9 -21.0°
Sets 03:43:11 0° 108° (ESE) 2,268 5.2 -20.7°
